[[{"header":{"parameterUnit":"m.s-1","parameterCategory":1,"la1":30.2991,"la2":30.254,"lo1":-89.0895,"lo2":-89.0444,"dy":0.0017,"dx":0.0017,"nx":28,"ny":28,"refTime":"2025-04-18T03:00:00:Z","depth":0,"parameterNumber":2,"parameterNumberName":"U-component_of_WINDS"},"data":[0,0,0,0,0,0,0,0,0,0,0,0,0,0,0,0,0,0,0,0,0,0,0,0,0,0,0,0,0,0,0,0,0,0,0,0,0,0,0,0,0,0,0,0,0,0,0,0,0,0,0,0,0,0,0,0,0,0,-3.3328,-3.3329,0,-3.3381,-3.3382,-3.3382,-3.3384,-3.3383,-3.3382,-3.3382,-3.3433,-3.3435,-3.3437,0,0,0,0,0,0,0,0,0,0,0,0,0,-3.3228,-3.3229,-3.3328,-3.3329,-3.333,-3.3381,-3.3382,-3.3382,-3.3384,-3.3383,-3.3382,-3.3381,-3.3432,-3.3435,-3.3437,0,0,0,0,0,0,0,0,0,0,0,0,0,-3.3275,-3.323,-3.3328,-3.3337,-3.3338,-3.3381,-3.3382,-3.3383,-3.3384,-3.3383,-3.3382,-3.3381,-3.3431,-3.3434,-3.3437,-3.3475,0,0,-3.3446,-3.3447,0,0,0,0,0,0,0,0,-3.3272,-3.3278,-3.3335,-3.3336,-3.3338,-3.3375,-3.3365,-3.3413,-3.3384,-3.3366,-3.3382,-3.3381,-3.3414,-3.3418,-3.343,-3.3477,-3.3479,-3.3446,-3.3448,-3.3449,-3.345,0,0,0,0,0,0,0,-3.3269,-3.3276,-3.3349,-3.3336,-3.3337,-3.3337,-3.3343,-3.3374,-3.3395,-3.3368,-3.3368,-3.3374,-3.3415,-3.3428,-3.3432,-3.348,-3.3446,-3.3449,-3.3451,-3.3452,-3.3561,-3.3562,0,0,0,0,0,0,-3.3264,-3.3273,-3.3347,-3.3351,-3.3302,-3.334,-3.3346,-3.3364,-3.3395,-3.3398,-3.3375,-3.3374,-3.3423,-3.3428,-3.3433,-3.3479,-3.3449,-3.3452,-3.3454,-3.356,-3.3561,-3.3562,0,0,0,0,0,0,-3.3262,-3.3271,-3.3345,-3.3312,-3.3322,-3.3343,-3.3362,-3.3365,-3.3378,-3.34,-3.3404,-3.3384,-3.3422,-3.3429,-3.3465,-3.3481,-3.3454,-3.3456,-3.3558,-3.356,-3.3561,-3.3571,0,0,0,0,0,0,-3.3259,-3.327,-3.3284,-3.3313,-3.3324,-3.3376,-3.3363,-3.3367,-3.3384,-3.3383,-3.341,-3.3413,-3.3422,-3.346,-3.3468,-3.3484,-3.3458,-3.3557,-3.3559,-3.3561,-3.3569,-3.3572,-3.3575,0,0,0,0,0,-3.3255,-3.3284,-3.3285,-3.3294,-3.3342,-3.3377,-3.3383,-3.3394,-3.3385,-3.3399,-3.3414,-3.3412,-3.3479,-3.3464,-3.3472,-3.349,-3.3556,-3.3558,-3.3561,-3.3567,-3.3572,-3.3575,0,0,0,0,0,0,-3.3256,-3.3288,-3.3289,-3.3328,-3.335,-3.3377,-3.3396,-3.3398,-3.3422,-3.342,-3.3431,-3.3437,-3.3472,-3.3485,-3.3468,-3.3528,-3.3516,-3.352,-3.3518,-3.3523,-3.3526,-3.3521,-3.3461,0,0,0,0,0,-3.3261,-3.3287,-3.3313,-3.3345,-3.3356,-3.3374,-3.339,-3.3396,-3.3419,-3.3428,-3.3445,-3.3466,-3.3492,-3.3508,-3.3533,-3.3572,-3.3577,-3.3588,-3.3592,-3.3594,-3.3597,-3.3619,-3.3624,-3.357,-3.357,-3.357,0,0,-3.327,-3.3291,-3.3306,-3.3346,-3.3363,-3.339,-3.3382,-3.341,-3.3429,-3.3432,-3.3466,-3.348,-3.3505,-3.3542,-3.3559,-3.3554,-3.3614,-3.3597,-3.3599,-3.3601,-3.3622,-3.3627,-3.3631,-3.3572,-3.3572,-3.3572,0,0,-3.3301,-3.332,-3.3348,-3.3367,-3.3394,-3.3407,-3.3414,-3.3441,-3.3451,-3.3486,-3.3489,-3.3512,-3.3556,-3.3574,-3.3589,-3.3629,-3.3628,-3.3637,-3.3653,-3.3674,-3.3678,-3.3682,-3.3695,-3.37,-3.364,-3.364,-3.364,0,-3.3308,-3.3349,-3.3362,-3.3391,-3.3408,-3.3414,-3.3442,-3.3459,-3.3493,-3.3505,-3.3499,-3.3555,-3.3572,-3.3614,-3.3624,-3.3636,-3.3644,-3.3633,-3.3677,-3.3681,-3.3684,-3.3697,-3.3702,-3.3641,-3.3641,-3.3641,-3.3641,0,-3.3357,-3.3386,-3.3405,-3.3439,-3.3459,-3.3487,-3.3505,-3.3523,-3.3529,-3.3542,-3.3578,-3.3599,-3.3629,-3.364,-3.3645,-3.3683,-3.3678,-3.3674,-3.3662,-3.369,-3.3702,-3.3707,-3.3642,-3.3642,-3.3642,-3.3641,0,0,-3.3386,-3.343,-3.3436,-3.3452,-3.3485,-3.3506,-3.3536,-3.3566,-3.3581,-3.3605,-3.3629,-3.3668,-3.3665,-3.3682,-3.369,-3.3708,-3.3739,-3.3702,-3.3703,-3.3707,-3.3781,-3.3782,-3.3788,-3.374,-3.3741,-3.3741,-3.3779,0,-3.342,-3.3472,-3.3486,-3.3531,-3.3557,-3.3564,-3.359,-3.3612,-3.3626,-3.3649,-3.3664,-3.3691,-3.3686,-3.3696,-3.3715,-3.3731,-3.3753,-3.3729,-3.3761,-3.3762,-3.3753,-3.3795,-3.3796,-3.383,-3.3784,-3.3784,-3.3785,0,-3.3465,-3.3491,-3.3538,-3.3569,-3.358,-3.3603,-3.3632,-3.3656,-3.3681,-3.369,-3.371,-3.3717,-3.3747,-3.3735,-3.3777,-3.376,-3.3775,-3.3785,-3.3787,-3.3788,-3.3774,-3.3796,-3.3841,-3.3845,-3.3793,-3.3792,-3.3792,0,-3.348,-3.3528,-3.3562,-3.3576,-3.3612,-3.3628,-3.3644,-3.3669,-3.3686,-3.3712,-3.3724,-3.3753,-3.3768,-3.379,-3.3804,-3.3794,-3.3845,-3.3834,-3.3852,-3.3852,-3.386,-3.3859,-3.3907,-3.3873,-3.3873,-3.3873,-3.3873,0,-3.3515,-3.3543,-3.357,-3.3591,-3.3623,-3.364,-3.3671,-3.3687,-3.371,-3.3734,-3.3742,-3.3764,-3.3782,-3.3807,-3.3819,-3.3852,-3.3859,-3.3866,-3.3868,-3.3864,-3.3863,-3.3872,-3.387,-3.3874,-3.3874,-3.3874,-3.3873,0,-3.3536,-3.3555,-3.3593,-3.3626,-3.3634,-3.3657,-3.3684,-3.3705,-3.372,-3.375,-3.3758,-3.3782,-3.3811,-3.3829,-3.3866,-3.3873,-3.391,-3.3912,-3.3901,-3.3902,-3.3918,-3.3916,-3.3972,-3.3979,-3.3942,-3.3942,-3.3943,0,-3.3556,-3.3578,-3.3613,-3.3631,-3.3647,-3.3675,-3.3693,-3.3711,-3.373,-3.3762,-3.3779,-3.381,-3.3835,-3.3883,-3.3902,-3.3931,-3.3933,-3.3951,-3.3937,-3.3932,-3.3932,-3.3929,-3.3932,-3.3952,-3.3952,-3.3953,-3.3953,0,-3.3588,-3.3598,-3.3625,-3.3656,-3.3678,-3.3703,-3.3728,-3.3741,-3.3763,-3.3784,-3.3815,-3.3835,-3.3875,-3.3905,-3.3936,-3.3951,-3.3955,-3.3958,-3.3963,-3.3958,-3.395,-3.3954,-3.3906,-3.3955,-3.3955,-3.3955,-3.3955,-3.3955,-3.3609,-3.3629,-3.3658,-3.3688,-3.3709,-3.3732,-3.3754,-3.3772,-3.3799,-3.3833,-3.3842,-3.3875,-3.3901,-3.3943,-3.396,-3.3986,-3.3983,-3.3991,-3.3992,-3.3994,-3.3994,-3.3948,-3.3992,-3.3992,-3.3992,-3.3992,-3.3992,0,-3.3641,-3.366,-3.3688,-3.3723,-3.3747,-3.3752,-3.378,-3.3799,-3.3828,-3.3853,-3.3879,-3.3915,-3.3945,-3.3968,-3.3999,-3.4015,-3.4018,-3.4022,-3.402,-3.4024,-3.3995,-3.3987,-3.402,-3.402,-3.402,-3.402,-3.402,-3.402,-3.3661,-3.3695,-3.3708,-3.3754,-3.3773,-3.3806,-3.3821,-3.3843,-3.3863,-3.3904,-3.3929,-3.3945,-3.3969,-3.4002,-3.403,-3.4036,-3.4046,-3.405,-3.4056,-3.4029,-3.4026,-3.4023,-3.4015,-3.4053,-3.4053,-3.4083,-3.4083,-3.4083]},{"header":{"parameterUnit":"m.s-1","parameterCategory":1,"la1":30.2991,"la2":30.254,"lo1":-89.0895,"lo2":-89.0444,"dy":0.0017,"dx":0.0017,"nx":28,"ny":28,"refTime":"2025-04-18T03:00:00:Z","depth":0,"parameterNumber":3,"parameterNumberName":"V-component_of_WINDS"},"data":[0,0,0,0,0,0,0,0,0,0,0,0,0,0,0,0,0,0,0,0,0,0,0,0,0,0,0,0,0,0,0,0,0,0,0,0,0,0,0,0,0,0,0,0,0,0,0,0,0,0,0,0,0,0,0,0,0,0,5.4078,5.4079,0,5.4176,5.4178,5.4179,5.4233,5.4233,5.4234,5.4234,5.4328,5.433,5.4332,0,0,0,0,0,0,0,0,0,0,0,0,0,5.3935,5.3937,5.4078,5.408,5.4081,5.4176,5.4178,5.4179,5.4233,5.4233,5.4234,5.4234,5.4327,5.433,5.4333,0,0,0,0,0,0,0,0,0,0,0,0,0,5.4011,5.3938,5.4078,5.4119,5.4124,5.4176,5.4178,5.4179,5.4233,5.4233,5.4234,5.4234,5.4326,5.433,5.4333,5.4349,0,0,5.4344,5.4345,0,0,0,0,0,0,0,0,5.4007,5.4016,5.4112,5.4117,5.4122,5.4193,5.4162,5.4236,5.4233,5.4191,5.4234,5.4234,5.4282,5.4289,5.4307,5.4354,5.4358,5.4344,5.4346,5.4348,5.4349,0,0,0,0,0,0,0,5.4001,5.4012,5.4117,5.4113,5.412,5.4132,5.4143,5.4176,5.4234,5.4195,5.4199,5.4211,5.4285,5.4304,5.431,5.4359,5.4344,5.4347,5.4349,5.4351,5.4428,5.4428,0,0,0,0,0,0,5.399,5.4007,5.4114,5.412,5.4064,5.4134,5.4147,5.417,5.4234,5.4244,5.421,5.4213,5.4297,5.4306,5.4313,5.4339,5.4348,5.4351,5.4353,5.4428,5.4428,5.4428,0,0,0,0,0,0,5.3987,5.3999,5.411,5.4065,5.408,5.4137,5.4162,5.4172,5.419,5.4245,5.4255,5.4219,5.4298,5.4308,5.4341,5.4343,5.4353,5.4356,5.4428,5.4428,5.4428,5.4389,0,0,0,0,0,0,5.3982,5.3997,5.4005,5.4065,5.4082,5.4137,5.4162,5.4173,5.4197,5.4201,5.4256,5.4265,5.4299,5.4336,5.4345,5.4348,5.4359,5.4428,5.4428,5.4428,5.4391,5.4388,5.4386,0,0,0,0,0,5.3977,5.3988,5.4005,5.4017,5.4093,5.4137,5.4147,5.4187,5.4197,5.4205,5.4241,5.4264,5.4341,5.4339,5.4349,5.4354,5.4428,5.4428,5.4428,5.4392,5.4388,5.4386,0,0,0,0,0,0,5.3923,5.3996,5.4016,5.4047,5.4086,5.4146,5.4157,5.4182,5.4217,5.4219,5.4266,5.4278,5.4307,5.4333,5.4329,5.4375,5.4387,5.4389,5.4356,5.4354,5.4351,5.4344,5.4361,0,0,0,0,0,5.3915,5.3946,5.4008,5.4029,5.4048,5.4099,5.412,5.4148,5.4189,5.4205,5.4244,5.4281,5.4315,5.4336,5.4369,5.4395,5.4409,5.4403,5.4401,5.4398,5.44,5.4418,5.4417,5.4427,5.4427,5.4427,0,0,5.3898,5.3942,5.3958,5.402,5.4053,5.4084,5.4112,5.4143,5.4166,5.4209,5.4244,5.4274,5.4319,5.435,5.4365,5.4372,5.44,5.4398,5.4396,5.4399,5.4418,5.4417,5.4416,5.4427,5.4427,5.4427,0,0,5.3883,5.3919,5.3943,5.3977,5.4029,5.4063,5.4069,5.4127,5.4149,5.4186,5.422,5.4247,5.4303,5.4335,5.4359,5.4361,5.4384,5.437,5.4357,5.4374,5.4374,5.4373,5.4376,5.4376,5.4371,5.4371,5.4371,0,5.3855,5.3905,5.3951,5.3981,5.4008,5.4052,5.4076,5.4106,5.4165,5.4182,5.419,5.4265,5.4298,5.4338,5.4339,5.4356,5.4364,5.4364,5.437,5.437,5.4371,5.4374,5.4374,5.4369,5.437,5.437,5.437,0,5.3869,5.3903,5.3915,5.3975,5.4003,5.4029,5.4079,5.4102,5.4128,5.4162,5.42,5.4242,5.4286,5.4298,5.4322,5.4342,5.4346,5.4362,5.4376,5.4367,5.4371,5.4372,5.4367,5.4367,5.4368,5.4368,0,0,5.382,5.3909,5.3913,5.3942,5.4004,5.4031,5.406,5.4107,5.4126,5.4165,5.4192,5.424,5.4257,5.4283,5.4312,5.4328,5.433,5.4342,5.4344,5.434,5.4357,5.4345,5.4346,5.4346,5.4346,5.4346,5.4353,0,5.3816,5.3873,5.3917,5.3957,5.399,5.4034,5.406,5.4101,5.4134,5.4166,5.4201,5.4236,5.4254,5.4271,5.4288,5.4326,5.4334,5.4326,5.437,5.4372,5.4359,5.4347,5.4334,5.4339,5.4355,5.4355,5.4355,0,5.3817,5.386,5.3904,5.3967,5.3982,5.4005,5.4053,5.4083,5.4131,5.4154,5.4186,5.4217,5.425,5.4262,5.4308,5.4302,5.4323,5.4345,5.4346,5.4352,5.4363,5.4354,5.4341,5.4342,5.4358,5.4357,5.4357,0,5.378,5.3848,5.3885,5.3908,5.3981,5.3996,5.4027,5.4076,5.4102,5.4143,5.4161,5.4204,5.4228,5.4261,5.4303,5.4307,5.4346,5.436,5.4367,5.4366,5.4373,5.4372,5.4364,5.4385,5.4385,5.4385,5.4384,0,5.3771,5.3797,5.387,5.3892,5.3923,5.3973,5.4002,5.4036,5.4079,5.4109,5.4149,5.4175,5.4229,5.4262,5.4295,5.4331,5.434,5.436,5.4368,5.4357,5.4355,5.4371,5.4373,5.4385,5.4385,5.4385,5.4385,0,5.3734,5.3784,5.3827,5.3894,5.3912,5.3932,5.3989,5.4012,5.4049,5.4086,5.4098,5.4154,5.4196,5.4242,5.4297,5.432,5.4353,5.4365,5.4338,5.4343,5.4347,5.4347,5.4351,5.4355,5.4371,5.4371,5.4371,0,5.3725,5.3747,5.3818,5.3843,5.3874,5.3911,5.394,5.3991,5.4018,5.4077,5.4093,5.4138,5.4177,5.4242,5.4287,5.433,5.4344,5.4343,5.4351,5.434,5.4346,5.4345,5.4348,5.434,5.434,5.4339,5.4339,0,5.3705,5.373,5.377,5.3821,5.3854,5.3895,5.3938,5.3955,5.4014,5.4043,5.4088,5.4119,5.4178,5.4223,5.4273,5.4304,5.4331,5.4337,5.4341,5.4329,5.4314,5.4324,5.4333,5.4336,5.4336,5.4336,5.4337,5.4337,5.3683,5.3706,5.3761,5.3806,5.3844,5.3884,5.391,5.3952,5.3991,5.4045,5.4073,5.4118,5.4167,5.4238,5.4268,5.4304,5.4312,5.4318,5.4319,5.432,5.4318,5.4308,5.4313,5.4313,5.4313,5.4313,5.4313,0,5.3667,5.3705,5.3746,5.3807,5.3842,5.3868,5.3918,5.3945,5.3985,5.403,5.407,5.4122,5.4167,5.4217,5.4265,5.4284,5.4298,5.4295,5.4294,5.4301,5.4307,5.4299,5.4283,5.4283,5.4283,5.4283,5.4283,5.4283,5.3662,5.3703,5.3735,5.3796,5.3834,5.388,5.3907,5.3944,5.3981,5.4039,5.4078,5.4111,5.4159,5.4211,5.4253,5.4267,5.4283,5.4277,5.4294,5.4298,5.43,5.4303,5.4296,5.4279,5.4279,5.4286,5.4286,5.4286]}]]